Home   Weather   Sibiu   Past weeks

Flag for Romania Past Weather in Sibiu, Romania — Yesterday and Last 2 Weeks

Now
59 °F

Sprinkles. Scattered clouds.


Feels Like: 58 °F
Forecast: 50 / 58 °F
Wind: 6 mph from West

Location: Sibiu Airport

Current Time: Apr 29, 2017 at 8:41:26 pm

Latest Report: Apr 29, 2017 at 8:00 pm


Visibility: N/A

Pressure: 29.89 "Hg

Humidity: 72%

Dew Point: 50 °F

Location of SibiuLocation

Past Weather in Sibiu — Graph

°F

Sibiu Temperature Yesterday

Maximum temperature yesterday: 79 °F (at 2:00 pm)
Minimum temperature yesterday: 59 °F (at 7:00 am)
Average temperature yesterday: 70 °F

High & Low Weather Summary for the Past Weeks

 TemperatureHumidityPressure
High79 °F (Apr 28, 2:00 pm)100% (Apr 21, 4:30 am)30.18 "Hg (Apr 21, 4:30 am)
Low27 °F (Apr 25, 6:30 am)19% (Apr 26, 2:00 pm)29.77 "Hg (Apr 19, 9:30 am)
Average49 °F60%29.96 "Hg
* Reported Apr 14 7:00 pm — Apr 29 7:30 pm, Sibiu, Weather by CustomWeather, © 2017

Note: Actual official high and low records may vary slightly from our data, if they occured in-between our weather recording intervals... More about our weather records

Advertising

Sibiu Weather History for the Previous 24 Hours

Scroll right to see more
 ConditionsComfort  
Time TempWeatherWind HumidityBarometerVisibility
7:30 pm
Sat, Apr 29
59 °FScattered clouds.6 mph77%29.89 "HgN/A
7:00 pm61 °FScattered clouds.5 mph68%29.89 "HgN/A
6:30 pm61 °FScattered clouds.5 mph63%29.92 "HgN/A
6:00 pm63 °FScattered clouds.5 mph56%29.92 "HgN/A
5:30 pm63 °FPassing clouds.5 mph56%29.92 "HgN/A
5:00 pm63 °FScattered clouds.2 mph56%29.89 "HgN/A
4:30 pm63 °FScattered clouds.3 mph56%29.89 "HgN/A
3:30 pm63 °FScattered clouds.5 mph52%29.92 "HgN/A
3:00 pm63 °FPassing clouds.2 mph56%29.92 "HgN/A
2:30 pm61 °FPassing clouds.2 mph55%29.92 "HgN/A
1:30 pm59 °FScattered clouds.7 mph55%29.95 "HgN/A
1:00 pm61 °FPartly sunny.7 mph52%29.95 "HgN/A
12:30 pm61 °FScattered clouds.8 mph55%29.95 "HgN/A
12:00 pm61 °FPassing clouds.8 mph55%29.92 "HgN/A
11:30 am59 °FSunny.9 mph59%29.92 "Hg10 mi
10:30 am59 °FSunny.8 mph59%29.92 "Hg10 mi
10:00 am59 °FSunny.9 mph63%29.89 "Hg10 mi
9:30 am57 °FSunny.13 mph67%29.89 "Hg10 mi
9:00 am57 °FSunny.14 mph67%29.89 "Hg10 mi
8:30 am61 °FPassing clouds.5 mph63%29.89 "HgN/A
8:00 am59 °FPassing clouds.6 mph72%29.86 "HgN/A
7:30 am57 °FSunny.No wind72%29.86 "Hg10 mi
7:00 am54 °FPassing clouds.3 mph82%29.86 "HgN/A
6:30 am55 °FSunny.7 mph77%29.83 "Hg10 mi
6:00 am63 °FPassing clouds.3 mph56%29.83 "HgN/A
5:30 am61 °FPassing clouds.5 mph59%29.83 "HgN/A
4:30 am57 °FPassing clouds.5 mph72%29.83 "HgN/A
4:00 am64 °FPassing clouds.5 mph56%29.83 "HgN/A
3:30 am63 °FClear.2 mph59%29.83 "Hg10 mi
3:00 am63 °FPassing clouds.2 mph59%29.83 "HgN/A
2:30 am66 °FClear.2 mph52%29.83 "Hg10 mi
2:00 am66 °FPassing clouds.5 mph52%29.83 "HgN/A
1:30 am66 °FClear.1 mph49%29.86 "Hg10 mi
1:00 am66 °FClear.1 mph49%29.86 "Hg10 mi
12:30 am66 °FPassing clouds.5 mph49%29.86 "HgN/A
11:30 pm
Fri, Apr 28
68 °FClear.5 mph43%29.86 "Hg10 mi
11:00 pm70 °FPassing clouds.6 mph40%29.86 "HgN/A
10:30 pm70 °FPassing clouds.8 mph40%29.86 "HgN/A
10:00 pm70 °FPassing clouds.8 mph40%29.83 "HgN/A
9:30 pm72 °FPassing clouds.5 mph36%29.83 "HgN/A
9:00 pm72 °FPassing clouds.7 mph36%29.83 "HgN/A
8:30 pm72 °FClear.9 mph36%29.83 "Hg10 mi
8:00 pm73 °FPassing clouds.12 mph33%29.83 "HgN/A
Weather by CustomWeather, © 2017

See weather overviewHow to use our weather pages